QPF
0.02 0.03 0.04 0.04 0.05 0.07 0.10 0.13 0.15 0.16 0.16 0.12 0.06 0.03 0.02 0.01 0.00 0.00 0.00 0.00 0.00 0.00 0.00 0.00 0.00 0.00 0.00 0.00 0.00 0.00 0.00 0.00 0.00 0.00 0.00 0.00 0.00 0.00
0.01 0.02 0.02 0.03 0.05 0.07 0.09 0.14 0.16 0.17 0.17 0.15 0.10 0.08 0.08 0.04 0.02 0.01 0.00 0.00 0.00 0.00 0.00 0.00 0.00 0.00 0.00 0.00 0.00 0.00 0.00 0.00 0.00 0.00 0.00 0.00 0.00 0.00
0.01 0.01 0.01 0.03 0.07 0.09 0.11 0.13 0.16 0.17 0.14 0.18 0.12 0.09 0.12 0.10 0.08 0.03 0.01 0.00 0.00 0.00 0.00 0.00 0.00 0.00 0.00 0.00 0.00 0.00 0.00 0.00 0.00 0.00 0.00 0.00 0.00 0.00
0.00 0.01 0.01 0.03 0.06 0.09 0.12 0.12 0.14 0.15 0.14 0.17 0.17 0.12 0.12 0.16 0.21 0.16 0.07 0.03 0.02 0.03 0.03 0.01 0.00 0.00 0.00 0.00 0.00 0.00 0.00 0.00 0.00 0.00 0.00 0.00 0.00 0.00
0.00 0.00 0.01 0.02 0.04 0.07 0.10 0.12 0.13 0.15 0.17 0.14 0.15 0.15 0.14 0.14 0.17 0.16 0.13 0.11 0.07 0.07 0.11 0.07 0.02 0.00 0.00 0.00 0.00 0.00 0.00 0.00 0.00 0.00 0.00 0.00 0.00 0.00
0.00 0.00 0.00 0.01 0.02 0.04 0.06 0.09 0.11 0.14 0.17 0.16 0.16 0.16 0.15 0.14 0.14 0.16 0.17 0.17 0.15 0.12 0.11 0.09 0.06 0.02 0.01 0.01 0.00 0.00 0.00 0.00 0.00 0.00 0.00 0.00 0.00 0.00
0.01 0.00 0.00 0.01 0.01 0.01 0.02 0.04 0.07 0.11 0.14 0.15 0.16 0.18 0.17 0.14 0.11 0.13 0.15 0.19 0.21 0.19 0.18 0.13 0.10 0.06 0.05 0.04 0.03 0.02 0.01 0.00 0.00 0.00 0.00 0.00 0.00 0.00
0.02 0.01 0.01 0.01 0.01 0.01 0.00 0.01 0.02 0.04 0.08 0.12 0.14 0.17 0.18 0.16 0.13 0.11 0.11 0.11 0.12 0.15 0.18 0.21 0.24 0.20 0.19 0.17 0.16 0.16 0.09 0.03 0.01 0.00 0.00 0.00 0.00 0.00
0.03 0.03 0.03 0.02 0.02 0.01 0.02 0.02 0.02 0.02 0.02 0.03 0.08 0.11 0.11 0.11 0.11 0.10 0.09 0.10 0.12 0.13 0.14 0.17 0.23 0.25 0.26 0.22 0.17 0.15 0.11 0.06 0.02 0.01 0.00 0.00 0.00 0.00
0.03 0.02 0.04 0.04 0.06 0.06 0.03 0.04 0.05 0.04 0.04 0.02 0.04 0.07 0.06 0.05 0.06 0.06 0.08 0.08 0.09 0.09 0.08 0.10 0.13 0.15 0.15 0.14 0.11 0.08 0.06 0.04 0.02 0.01 0.01 0.00 0.00 0.00
0.05 0.05 0.06 0.09 0.18 0.12 0.03 0.05 0.07 0.07 0.06 0.04 0.02 0.01 0.01 0.01 0.02 0.03 0.04 0.04 0.05 0.06 0.06 0.07 0.08 0.08 0.07 0.07 0.06 0.05 0.04 0.03 0.02 0.01 0.01 0.01 0.00 0.00
0.09 0.10 0.15 0.12 0.17 0.10 0.02 0.07 0.13 0.12 0.07 0.06 0.05 0.04 0.03 0.02 0.01 0.03 0.06 0.07 0.07 0.07 0.05 0.04 0.05 0.05 0.05 0.04 0.03 0.02 0.01 0.01 0.02 0.02 0.02 0.02 0.02 0.02
0.12 0.14 0.12 0.10 0.06 0.05 0.03 0.06 0.12 0.09 0.06 0.09 0.10 0.09 0.08 0.08 0.07 0.06 0.06 0.06 0.07 0.07 0.05 0.03 0.04 0.04 0.03 0.03 0.04 0.02 0.01 0.01 0.01 0.02 0.02 0.03 0.04 0.03
0.08 0.08 0.06 0.07 0.03 0.02 0.02 0.03 0.04 0.03 0.07 0.13 0.13 0.11 0.09 0.07 0.06 0.05 0.04 0.05 0.06 0.06 0.05 0.04 0.04 0.03 0.02 0.02 0.03 0.03 0.02 0.02 0.01 0.01 0.01 0.03 0.03 0.04
0.03 0.04 0.03 0.02 0.02 0.02 0.02 0.01 0.02 0.05 0.09 0.11 0.10 0.07 0.05 0.04 0.03 0.02 0.02 0.03 0.05 0.03 0.03 0.04 0.04 0.04 0.04 0.03 0.03 0.03 0.03 0.02 0.02 0.02 0.02 0.02 0.02 0.03
0.03 0.03 0.02 0.03 0.04 0.04 0.03 0.03 0.05 0.06 0.10 0.09 0.06 0.03 0.03 0.04 0.04 0.03 0.02 0.04 0.08 0.08 0.06 0.05 0.04 0.04 0.04 0.04 0.03 0.04 0.05 0.05 0.05 0.04 0.03 0.02 0.02 0.02
0.05 0.08 0.08 0.09 0.08 0.07 0.07 0.07 0.06 0.06 0.06 0.06 0.06 0.06 0.06 0.06 0.04 0.03 0.03 0.03 0.05 0.06 0.06 0.05 0.03 0.02 0.02 0.02 0.03 0.05 0.05 0.05 0.05 0.05 0.03 0.02 0.02 0.03
0.08 0.10 0.09 0.08 0.08 0.07 0.06 0.05 0.05 0.05 0.06 0.07 0.07 0.06 0.05 0.05 0.04 0.03 0.02 0.02 0.03 0.04 0.04 0.03 0.02 0.01 0.01 0.03 0.04 0.04 0.04 0.04 0.03 0.04 0.03 0.02 0.02 0.04
0.07 0.06 0.06 0.06 0.06 0.06 0.04 0.03 0.01 0.02 0.02 0.03 0.04 0.04 0.03 0.03 0.03 0.02 0.02 0.02 0.02 0.02 0.02 0.01 0.01 0.01 0.01 0.02 0.03 0.01 0.01 0.02 0.02 0.02 0.03 0.03 0.02 0.03
0.01 0.01 0.02 0.03 0.03 0.03 0.02 0.01 0.01 0.00 0.00 0.00 0.01 0.01 0.01 0.02 0.02 0.02 0.02 0.01 0.01 0.01 0.01 0.02 0.02 0.01 0.01 0.02 0.02 0.03 0.01 0.01 0.02 0.01 0.01 0.01 0.01 0.01
0.01 0.00 0.00 0.01 0.01 0.01 0.01 0.01 0.01 0.01 0.00 0.01 0.01 0.01 0.01 0.01 0.01 0.01 0.01 0.01 0.01 0.01 0.01 0.02 0.02 0.00 0.01 0.01 0.02 0.03 0.03 0.01 0.00 0.00 0.00 0.00 0.00 0.00
0.00 0.00 0.00 0.00 0.00 0.00 0.00 0.00 0.00 0.00 0.00 0.00 0.01 0.01 0.01 0.01 0.01 0.01 0.01 0.01 0.01 0.01 0.01 0.01 0.01 0.01 0.01 0.01 0.01 0.01 0.01 0.01 0.01 0.01 0.00 0.00 0.00 0.00
0.00 0.00 0.00 0.00 0.00 0.00 0.00 0.00 0.00 0.00 0.00 0.00 0.00 0.01 0.01 0.01 0.01 0.01 0.01 0.00 0.00 0.00 0.00 0.01 0.01 0.01 0.01 0.01 0.01 0.01 0.01 0.01 0.01 0.02 0.02 0.01 0.00 0.00
MSLP
1014.48 1014.89 1015.28 1015.64 1015.93 1016.13 1016.24 1016.27 1016.25 1016.19 1016.12 1016.07 1016.04 1016.04 1016.07 1016.10 1016.15 1016.21 1016.29 1016.41 1016.57 1016.80 1017.09 1017.42 1017.79 1018.14 1018.45 1018.68 1018.80 1018.83 1018.78 1018.69 1018.60 1018.54 1018.54 1018.60 1018.69 1018.78
1014.21 1014.56 1014.92 1015.23 1015.50 1015.70 1015.82 1015.88 1015.90 1015.88 1015.85 1015.83 1015.82 1015.83 1015.84 1015.85 1015.87 1015.90 1015.94 1016.03 1016.17 1016.38 1016.66 1017.00 1017.38 1017.76 1018.10 1018.37 1018.55 1018.62 1018.62 1018.56 1018.48 1018.42 1018.40 1018.43 1018.51 1018.59
1013.96 1014.26 1014.55 1014.82 1015.05 1015.23 1015.37 1015.46 1015.51 1015.54 1015.57 1015.59 1015.61 1015.63 1015.64 1015.65 1015.65 1015.65 1015.66 1015.71 1015.81 1015.98 1016.23 1016.54 1016.90 1017.28 1017.64 1017.93 1018.15 1018.28 1018.32 1018.29 1018.24 1018.19 1018.17 1018.19 1018.26 1018.34
1013.73 1013.97 1014.20 1014.41 1014.61 1014.78 1014.93 1015.04 1015.14 1015.23 1015.31 1015.38 1015.44 1015.49 1015.53 1015.54 1015.53 1015.51 1015.49 1015.49 1015.54 1015.66 1015.85 1016.11 1016.42 1016.77 1017.11 1017.41 1017.65 1017.81 1017.90 1017.92 1017.91 1017.88 1017.87 1017.89 1017.95 1018.04
1013.52 1013.69 1013.86 1014.04 1014.21 1014.38 1014.54 1014.69 1014.83 1014.97 1015.11 1015.23 1015.35 1015.44 1015.50 1015.52 1015.52 1015.49 1015.44 1015.41 1015.41 1015.45 1015.57 1015.75 1015.99 1016.28 1016.58 1016.86 1017.11 1017.29 1017.41 1017.48 1017.50 1017.51 1017.52 1017.55 1017.61 1017.71
1013.32 1013.44 1013.57 1013.71 1013.87 1014.04 1014.22 1014.40 1014.59 1014.78 1014.97 1015.14 1015.30 1015.43 1015.53 1015.58 1015.59 1015.56 1015.51 1015.45 1015.40 1015.38 1015.42 1015.52 1015.68 1015.88 1016.11 1016.36 1016.58 1016.77 1016.91 1017.01 1017.08 1017.12 1017.15 1017.20 1017.27 1017.36
1013.17 1013.24 1013.33 1013.46 1013.61 1013.78 1013.98 1014.19 1014.42 1014.64 1014.87 1015.08 1015.28 1015.44 1015.57 1015.66 1015.69 1015.69 1015.64 1015.57 1015.50 1015.44 1015.41 1015.42 1015.49 1015.61 1015.77 1015.95 1016.13 1016.31 1016.45 1016.57 1016.66 1016.73 1016.79 1016.85 1016.92 1017.02
1013.08 1013.11 1013.18 1013.29 1013.43 1013.62 1013.83 1014.05 1014.30 1014.54 1014.78 1015.01 1015.23 1015.42 1015.58 1015.70 1015.78 1015.80 1015.79 1015.74 1015.66 1015.58 1015.50 1015.46 1015.45 1015.48 1015.56 1015.67 1015.80 1015.94 1016.07 1016.19 1016.29 1016.38 1016.45 1016.52 1016.59 1016.67
1013.08 1013.07 1013.12 1013.21 1013.35 1013.54 1013.75 1013.98 1014.21 1014.46 1014.69 1014.92 1015.14 1015.34 1015.53 1015.68 1015.80 1015.87 1015.90 1015.89 1015.84 1015.76 1015.67 1015.58 1015.52 1015.48 1015.48 1015.52 1015.59 1015.68 1015.79 1015.89 1015.98 1016.07 1016.14 1016.20 1016.26 1016.33
1013.17 1013.14 1013.17 1013.25 1013.38 1013.55 1013.75 1013.96 1014.18 1014.40 1014.61 1014.82 1015.02 1015.22 1015.41 1015.58 1015.74 1015.87 1015.95 1015.99 1015.98 1015.94 1015.86 1015.76 1015.66 1015.58 1015.52 1015.49 1015.50 1015.54 1015.60 1015.67 1015.74 1015.80 1015.86 1015.91 1015.94 1015.98
1013.37 1013.31 1013.32 1013.39 1013.50 1013.66 1013.84 1014.03 1014.21 1014.39 1014.56 1014.73 1014.90 1015.08 1015.26 1015.45 1015.64 1015.81 1015.95 1016.04 1016.09 1016.08 1016.03 1015.95 1015.84 1015.73 1015.63 1015.55 1015.50 1015.48 1015.49 1015.52 1015.55 1015.59 1015.62 1015.64 1015.65 1015.66
1013.65 1013.57 1013.57 1013.62 1013.73 1013.87 1014.02 1014.18 1014.32 1014.46 1014.58 1014.71 1014.84 1014.99 1015.16 1015.34 1015.54 1015.74 1015.91 1016.06 1016.15 1016.19 1016.18 1016.11 1016.01 1015.89 1015.76 1015.65 1015.55 1015.49 1015.45 1015.43 1015.42 1015.42 1015.42 1015.41 1015.39 1015.37
1014.00 1013.91 1013.89 1013.94 1014.04 1014.16 1014.30 1014.42 1014.54 1014.64 1014.72 1014.80 1014.89 1015.01 1015.15 1015.32 1015.51 1015.71 1015.91 1016.08 1016.20 1016.27 1016.29 1016.24 1016.16 1016.04 1015.90 1015.76 1015.64 1015.54 1015.46 1015.40 1015.35 1015.32 1015.28 1015.24 1015.20 1015.15
1014.40 1014.31 1014.29 1014.33 1014.42 1014.54 1014.66 1014.78 1014.87 1014.94 1015.00 1015.05 1015.10 1015.18 1015.29 1015.43 1015.60 1015.78 1015.97 1016.14 1016.27 1016.35 1016.38 1016.35 1016.28 1016.16 1016.03 1015.88 1015.75 1015.62 1015.52 1015.43 1015.36 1015.29 1015.23 1015.17 1015.11 1015.04
1014.86 1014.77 1014.75 1014.79 1014.88 1015.00 1015.12 1015.22 1015.31 1015.37 1015.41 1015.44 1015.47 1015.51 1015.59 1015.69 1015.82 1015.97 1016.12 1016.27 1016.38 1016.46 1016.48 1016.46 1016.39 1016.28 1016.16 1016.02 1015.88 1015.75 1015.63 1015.53 1015.44 1015.37 1015.29 1015.22 1015.14 1015.07
1015.37 1015.29 1015.27 1015.32 1015.41 1015.52 1015.64 1015.75 1015.83 1015.89 1015.93 1015.95 1015.97 1015.99 1016.03 1016.10 1016.18 1016.28 1016.39 1016.49 1016.57 1016.61 1016.62 1016.59 1016.52 1016.42 1016.31 1016.18 1016.05 1015.93 1015.82 1015.72 1015.63 1015.55 1015.47 1015.39 1015.31 1015.23
1015.96 1015.88 1015.87 1015.91 1016.00 1016.11 1016.23 1016.34 1016.43 1016.49 1016.53 1016.55 1016.55 1016.56 1016.58 1016.61 1016.65 1016.70 1016.75 1016.80 1016.83 1016.84 1016.82 1016.77 1016.70 1016.60 1016.50 1016.39 1016.28 1016.18 1016.08 1016.00 1015.92 1015.85 1015.77 1015.69 1015.61 1015.53
1016.62 1016.55 1016.54 1016.58 1016.66 1016.76 1016.87 1016.97 1017.05 1017.11 1017.15 1017.17 1017.18 1017.17 1017.17 1017.17 1017.18 1017.18 1017.19 1017.19 1017.17 1017.14 1017.09 1017.03 1016.95 1016.86 1016.76 1016.67 1016.58 1016.50 1016.43 1016.36 1016.30 1016.24 1016.17 1016.10 1016.02 1015.93
1017.37 1017.31 1017.30 1017.33 1017.39 1017.46 1017.55 1017.63 1017.69 1017.74 1017.77 1017.78 1017.78 1017.77 1017.76 1017.74 1017.72 1017.70 1017.67 1017.63 1017.58 1017.52 1017.45 1017.37 1017.28 1017.19 1017.11 1017.03 1016.96 1016.90 1016.85 1016.80 1016.75 1016.70 1016.64 1016.57 1016.49 1016.39
1018.17 1018.13 1018.11 1018.13 1018.16 1018.21 1018.26 1018.30 1018.33 1018.35 1018.36 1018.36 1018.35 1018.33 1018.31 1018.28 1018.25 1018.21 1018.16 1018.11 1018.04 1017.96 1017.88 1017.78 1017.69 1017.61 1017.53 1017.46 1017.40 1017.35 1017.31 1017.28 1017.24 1017.20 1017.15 1017.08 1016.99 1016.88
1018.98 1018.95 1018.94 1018.95 1018.95 1018.96 1018.96 1018.96 1018.95 1018.94 1018.91 1018.88 1018.86 1018.83 1018.80 1018.78 1018.74 1018.71 1018.66 1018.60 1018.53 1018.45 1018.36 1018.27 1018.18 1018.09 1018.01 1017.94 1017.89 1017.84 1017.81 1017.78 1017.75 1017.71 1017.65 1017.58 1017.49 1017.37
1019.74 1019.73 1019.73 1019.72 1019.71 1019.68 1019.64 1019.59 1019.54 1019.48 1019.42 1019.36 1019.32 1019.28 1019.25 1019.22 1019.20 1019.17 1019.14 1019.09 1019.03 1018.96 1018.88 1018.79 1018.70 1018.61 1018.53 1018.46 1018.40 1018.35 1018.31 1018.28 1018.24 1018.20 1018.15 1018.07 1017.98 1017.85
1020.37 1020.39 1020.41 1020.40 1020.37 1020.32 1020.25 1020.17 1020.07 1019.97 1019.88 1019.80 1019.73 1019.68 1019.65 1019.63 1019.62 1019.61 1019.59 1019.56 1019.52 1019.47 1019.40 1019.31 1019.23 1019.14 1019.05 1018.97 1018.91 1018.85 1018.80 1018.76 1018.72 1018.68 1018.62 1018.55 1018.45 1018.31
Thickness
5703 5702 5700 5700 5698 5696 5694 5690 5683 5677 5679 5687 5691 5694 5694 5693 5693 5690 5690 5689 5688 5686 5686 5686 5686 5687 5687 5688 5689 5690 5690 5691 5692 5694 5696 5697 5699 5701
5696 5695 5695 5694 5693 5691 5690 5688 5685 5680 5676 5682 5685 5688 5689 5688 5687 5687 5687 5687 5686 5685 5684 5684 5684 5684 5684 5684 5684 5685 5685 5686 5687 5689 5690 5692 5693 5695
5691 5690 5690 5690 5687 5687 5686 5684 5682 5680 5675 5677 5681 5683 5683 5682 5683 5683 5684 5685 5684 5683 5683 5683 5682 5682 5681 5681 5681 5681 5681 5682 5683 5684 5685 5687 5688 5689
5686 5686 5686 5686 5684 5683 5681 5680 5679 5678 5675 5673 5675 5677 5678 5679 5678 5678 5680 5682 5682 5682 5682 5681 5681 5680 5679 5679 5678 5678 5678 5678 5679 5680 5681 5682 5683 5684
5683 5682 5682 5682 5680 5679 5678 5677 5676 5675 5674 5672 5672 5673 5674 5675 5674 5675 5676 5678 5679 5681 5681 5680 5679 5679 5678 5678 5677 5676 5676 5676 5676 5676 5677 5677 5678 5679
5681 5680 5679 5678 5675 5675 5674 5672 5672 5670 5670 5668 5668 5668 5668 5669 5669 5668 5669 5672 5675 5677 5678 5678 5678 5677 5677 5677 5676 5675 5675 5674 5674 5674 5674 5674 5674 5674
5677 5677 5675 5673 5671 5670 5668 5666 5665 5664 5664 5663 5663 5663 5663 5662 5663 5665 5664 5666 5668 5671 5672 5674 5675 5675 5674 5674 5674 5674 5674 5673 5672 5672 5671 5670 5670 5670
5670 5671 5670 5669 5667 5665 5664 5662 5661 5660 5658 5658 5658 5658 5658 5660 5660 5660 5660 5659 5660 5666 5667 5669 5671 5670 5671 5671 5672 5672 5672 5670 5669 5668 5668 5667 5666 5666
5663 5664 5666 5667 5664 5662 5660 5659 5658 5658 5657 5655 5655 5655 5655 5656 5657 5656 5656 5656 5656 5659 5660 5660 5664 5663 5665 5666 5667 5668 5667 5666 5665 5664 5663 5662 5661 5661
5656 5658 5659 5659 5658 5656 5655 5655 5655 5655 5654 5653 5653 5652 5652 5653 5653 5652 5652 5652 5653 5654 5654 5652 5654 5656 5658 5659 5659 5660 5659 5658 5658 5657 5657 5656 5656 5655
5649 5650 5650 5648 5649 5649 5649 5649 5649 5649 5649 5649 5648 5647 5647 5647 5647 5647 5646 5644 5644 5645 5646 5645 5646 5647 5649 5650 5651 5650 5649 5649 5649 5649 5649 5648 5648 5647
5639 5640 5640 5640 5640 5641 5642 5642 5641 5643 5644 5643 5643 5642 5642 5642 5641 5641 5640 5638 5637 5637 5639 5638 5638 5638 5638 5641 5642 5641 5641 5641 5640 5640 5639 5639 5638 5637
5627 5628 5628 5630 5632 5633 5634 5635 5635 5637 5639 5639 5638 5638 5637 5637 5637 5637 5637 5636 5633 5632 5633 5632 5630 5630 5628 5629 5632 5633 5632 5631 5631 5631 5630 5629 5627 5626
5615 5617 5619 5622 5624 5627 5629 5630 5632 5633 5634 5633 5632 5631 5630 5630 5631 5632 5632 5632 5632 5630 5629 5627 5624 5622 5620 5619 5620 5622 5622 5622 5621 5619 5618 5617 5617 5616
5606 5609 5612 5615 5618 5620 5623 5625 5628 5628 5628 5627 5625 5624 5625 5626 5626 5626 5627 5627 5626 5626 5624 5622 5619 5616 5613 5611 5609 5610 5610 5610 5609 5607 5606 5605 5604 5604
5601 5603 5606 5609 5612 5615 5618 5620 5622 5623 5623 5622 5621 5621 5621 5621 5621 5620 5619 5619 5618 5617 5618 5616 5613 5610 5606 5604 5601 5599 5598 5596 5595 5595 5593 5593 5592 5592
5596 5599 5602 5604 5606 5609 5612 5614 5616 5618 5618 5617 5617 5616 5616 5616 5615 5615 5614 5613 5610 5608 5607 5607 5606 5604 5602 5597 5592 5588 5585 5583 5581 5580 5579 5577 5577 5576
5594 5594 5596 5598 5600 5603 5605 5607 5609 5611 5612 5612 5612 5612 5611 5610 5609 5609 5608 5606 5603 5601 5599 5598 5596 5594 5591 5586 5581 5577 5573 5570 5568 5566 5565 5562 5561 5560
5591 5591 5592 5594 5596 5598 5600 5602 5603 5605 5606 5606 5606 5606 5606 5606 5605 5603 5602 5600 5597 5595 5593 5590 5587 5582 5576 5572 5570 5567 5562 5558 5555 5552 5549 5547 5545 5543
5589 5589 5590 5591 5593 5595 5596 5598 5599 5600 5601 5601 5602 5602 5602 5601 5600 5599 5597 5594 5592 5590 5587 5583 5579 5574 5569 5564 5561 5558 5553 5549 5544 5539 5535 5533 5531 5528
5590 5590 5590 5591 5592 5593 5594 5595 5596 5596 5597 5598 5598 5598 5598 5598 5597 5595 5593 5591 5588 5585 5580 5577 5574 5571 5567 5562 5555 5549 5544 5539 5534 5528 5524 5520 5516 5514
5594 5593 5592 5592 5593 5594 5594 5595 5596 5595 5595 5596 5596 5596 5597 5596 5595 5593 5590 5587 5584 5580 5577 5574 5572 5568 5563 5556 5549 5543 5537 5532 5526 5520 5515 5510 5503 5500
5598 5596 5595 5594 5594 5595 5596 5596 5596 5595 5595 5595 5595 5596 5596 5595 5593 5590 5587 5584 5581 5578 5574 5571 5568 5564 5559 5552 5545 5537 5532 5525 5519 5514 5508 5503 5498 5493